[[{"header":{"parameterUnit":"m.s-1","parameterCategory":2,"la1":30.2992,"la2":30.254,"lo1":-89.0895,"lo2":-89.0443,"dy":0.0025,"dx":0.0025,"nx":19,"ny":19,"refTime":"2026-04-07T21:00:00:Z","depth":"0","parameterNumber":2,"parameterNumberName":"U-component_of_CURRENTS"},"data":[0,0,0,0.2921,0.2921,0.2924,0.2924,0.2854,0.2853,0,0,0,0,0,0,0,0,0,0,0,0.29,0.29,0.2921,0.2921,0.2924,0.2924,0.2854,0.2853,0,0,0,0,0,0,0,0,0,0,0,0.29,0.29,0.29,0.2921,0.2924,0.2924,0.2854,0.2865,0,0,0,0,0,0,0,0,0,0,0.287,0.286,0.29,0.29,0.2922,0.2925,0.2924,0.2867,0.2865,0.2837,0,0.2839,0,0.286,0.2848,0.2848,0,0,0,0.2902,0.2861,0.2878,0.29,0.2922,0.2925,0.2917,0.2866,0.2864,0.2834,0.2838,0.2836,0.2858,0.2848,0.2848,0.2822,0.2822,0,0,0.2902,0.2883,0.288,0.2877,0.2922,0.2918,0.2918,0.2865,0.2851,0.2838,0.2836,0.2857,0.2848,0.2847,0.2822,0.2822,0,0,0,0.2914,0.2883,0.2901,0.2879,0.2894,0.2918,0.2918,0.2853,0.2864,0.2835,0.2856,0.2847,0.2846,0.2822,0.2822,0.285,0,0,0,0.2913,0.2893,0.2901,0.2888,0.2896,0.2883,0.2907,0.2867,0.2863,0.2857,0.2847,0.2846,0.2821,0.2822,0.2849,0.2872,0,0,0,0.29,0.2891,0.2895,0.2887,0.2902,0.2885,0.2891,0.2866,0.2876,0.2848,0.2845,0.2821,0.2822,0.2847,0.287,0.2934,0,0,0,0.2876,0.2822,0.2894,0.2838,0.2903,0.2881,0.2892,0.2858,0.2829,0.2847,0.2821,0.2822,0.2847,0.2868,0.2931,0.2928,0.2939,0,0,0.2785,0.2811,0.2777,0.2842,0.2823,0.2879,0.2866,0.2837,0.2835,0.2829,0.2829,0.2849,0.2869,0.2933,0.2961,0.297,0,0,0,0.2732,0.2731,0.2726,0.2746,0.276,0.2822,0.2821,0.2845,0.2859,0.2829,0.2853,0.2865,0.2905,0.2898,0.2905,0.2862,0.2825,0.2825,0.2825,0.2613,0.2652,0.2622,0.2686,0.2697,0.2777,0.2819,0.2866,0.2842,0.2872,0.289,0.2961,0.2952,0.2958,0.2913,0.2886,0.2887,0.2887,0.2887,0.2522,0.2514,0.2596,0.2584,0.2684,0.2708,0.2837,0.2876,0.2962,0.2929,0.2966,0.2929,0.2968,0.2917,0.2889,0.2888,0.2888,0.2888,0.2888,0.2463,0.2464,0.2482,0.2524,0.2594,0.2699,0.2815,0.292,0.2991,0.3035,0.3047,0.3046,0.3002,0.3056,0.3057,0.3057,0.3057,0.3058,0.3058,0.2384,0.2407,0.2411,0.247,0.2505,0.2624,0.2813,0.2909,0.3049,0.3092,0.3092,0.302,0.3013,0.3008,0.3064,0.3063,0.3062,0.3062,0.3061,0.23,0.2328,0.233,0.2354,0.2441,0.2495,0.2713,0.2923,0.305,0.312,0.311,0.3133,0.3134,0.3126,0.3124,0.3208,0.3208,0.3208,0.3208,0.2246,0.2261,0.225,0.2266,0.2326,0.2432,0.2523,0.2738,0.2995,0.3077,0.3146,0.3081,0.3077,0.3071,0.3065,0.306,0.3124,0.3124,0.3124,0.22,0.2211,0.2172,0.2194,0.2244,0.2323,0.235,0.2491,0.2879,0.3116,0.309,0.3093,0.299,0.2987,0.2967,0.2962,0.295,0,0]},{"header":{"parameterUnit":"m.s-1","parameterCategory":2,"la1":30.2992,"la2":30.254,"lo1":-89.0895,"lo2":-89.0443,"dy":0.0025,"dx":0.0025,"nx":19,"ny":19,"refTime":"2026-04-07T21:00:00:Z","depth":"0","parameterNumber":3,"parameterNumberName":"V-component_of_CURRENTS"},"data":[0,0,0,-0.0189,-0.0188,-0.0198,-0.0198,-0.0228,-0.0228,0,0,0,0,0,0,0,0,0,0,0,-0.0181,-0.0181,-0.0189,-0.0188,-0.0198,-0.0198,-0.0228,-0.0228,0,0,0,0,0,0,0,0,0,0,0,-0.0181,-0.0181,-0.018,-0.0188,-0.0198,-0.0198,-0.0228,-0.0218,0,0,0,0,0,0,0,0,0,0,-0.0208,-0.0181,-0.0181,-0.018,-0.0188,-0.0198,-0.0198,-0.0218,-0.0219,-0.0225,0,-0.0215,0,-0.0219,-0.0229,-0.0229,0,0,0,-0.0199,-0.018,-0.0195,-0.018,-0.0188,-0.0198,-0.0197,-0.0219,-0.022,-0.0226,-0.0215,-0.0216,-0.022,-0.0229,-0.023,-0.019,-0.0189,0,0,-0.0198,-0.0175,-0.0194,-0.0195,-0.0176,-0.0196,-0.0197,-0.0219,-0.0207,-0.0215,-0.0217,-0.022,-0.023,-0.023,-0.019,-0.019,0,0,0,-0.019,-0.0174,-0.0188,-0.0194,-0.0193,-0.0196,-0.0197,-0.0206,-0.0214,-0.0217,-0.0221,-0.023,-0.023,-0.0191,-0.019,-0.0079,0,0,0,-0.019,-0.0169,-0.0188,-0.0173,-0.0192,-0.0194,-0.0183,-0.0212,-0.0215,-0.0221,-0.023,-0.023,-0.0192,-0.0191,-0.0083,-0.0016,0,0,0,-0.0183,-0.0168,-0.0168,-0.0172,-0.0174,-0.0194,-0.0202,-0.0213,-0.0217,-0.0229,-0.023,-0.0192,-0.0191,-0.0087,-0.0024,0.0023,0,0,0,-0.0164,-0.0102,-0.0167,-0.0097,-0.0173,-0.0135,-0.0202,-0.0181,-0.0182,-0.023,-0.0192,-0.019,-0.0089,-0.0028,0.0018,0.0116,0.0145,0,0,-0.0067,-0.009,-0.0048,-0.0106,-0.0042,-0.0135,-0.0069,-0.011,-0.0167,-0.0189,-0.0188,-0.0082,-0.0024,0.0022,0.0197,0.0224,0,0,0,-0.0005,0.0016,0.0029,0.0043,0.0035,0.0028,-0.0028,-0.0056,-0.0079,-0.0161,-0.0085,-0.0051,-0.0026,0.0023,0.0044,-0.0059,-0.0184,-0.0184,-0.0184,0.0138,0.012,0.0186,0.0161,0.0171,0.0139,0.0135,0.0078,0.0008,0.001,0.0037,0.0148,0.0202,0.0219,0.0111,0.0023,0.0023,0.0024,0.0024,0.0263,0.0292,0.0268,0.0314,0.0288,0.0313,0.0273,0.0228,0.0217,0.0135,0.0153,0.0136,0.0249,0.0125,0.0031,0.003,0.0029,0.0028,0.0028,0.0326,0.0341,0.0351,0.0399,0.0443,0.0423,0.0491,0.0432,0.0333,0.0356,0.0375,0.0373,0.0265,0.0355,0.0356,0.0357,0.0357,0.0357,0.0358,0.0381,0.0398,0.0452,0.0495,0.0542,0.0614,0.0623,0.0627,0.0592,0.0521,0.052,0.0305,0.0248,0.0236,0.0366,0.0364,0.0363,0.0363,0.0362,0.046,0.0459,0.055,0.0603,0.0732,0.0872,0.0866,0.0908,0.0863,0.0869,0.0572,0.0591,0.0563,0.0545,0.054,0.0741,0.0741,0.0741,0.0741,0.0512,0.0518,0.0644,0.0754,0.0895,0.0994,0.1176,0.1182,0.0957,0.0812,0.0667,0.0596,0.0586,0.0551,0.0533,0.0523,0.0715,0.0715,0.0714,0.0573,0.0602,0.0706,0.0803,0.0965,0.1141,0.1332,0.1406,0.1028,0.0695,0.0505,0.0506,0.0376,0.0368,0.0286,0.0269,0.0242,0,0]}],[{"header":{"parameterUnit":"m.s-1","parameterCategory":2,"la1":30.2992,"la2":30.254,"lo1":-89.0895,"lo2":-89.0443,"dy":0.0025,"dx":0.0025,"nx":19,"ny":19,"refTime":"2026-04-07T21:00:00:Z","depth":"2","parameterNumber":2,"parameterNumberName":"U-component_of_CURRENTS"},"data":[0,0,0,0.255,0.2553,0.2633,0.2633,0.2662,0.2663,0,0,0,0,0,0,0,0,0,0,0,0.2508,0.2509,0.255,0.2553,0.2633,0.2633,0.2662,0.2663,0,0,0,0,0,0,0,0,0,0,0,0.2508,0.2509,0.2509,0.2553,0.2633,0.2633,0.2662,0.2616,0,0,0,0,0,0,0,0,0,0,0.2545,0.253,0.2508,0.2509,0.2554,0.2633,0.2633,0.2614,0.2619,0.261,0,0.2629,0,0.266,0.2664,0.2665,0,0,0,0.2535,0.2526,0.2547,0.251,0.2555,0.2633,0.2592,0.2617,0.2622,0.2616,0.2629,0.2632,0.266,0.2665,0.2665,0.271,0.271,0,0,0.2531,0.2521,0.2544,0.2551,0.2582,0.259,0.2595,0.2621,0.2627,0.263,0.2633,0.2661,0.2665,0.2665,0.271,0.271,0,0,0,0.253,0.2518,0.2539,0.2548,0.2577,0.2592,0.2598,0.2626,0.2633,0.2634,0.2661,0.2665,0.2665,0.2709,0.271,0.2739,0,0,0,0.2526,0.2519,0.2537,0.2532,0.2577,0.2616,0.2603,0.2631,0.2636,0.2661,0.2665,0.2666,0.2709,0.271,0.2738,0.2761,0,0,0,0.2503,0.2517,0.2528,0.2531,0.2576,0.2616,0.2625,0.2633,0.2653,0.2665,0.2666,0.2709,0.271,0.2736,0.2758,0.2815,0,0,0,0.2487,0.2489,0.2527,0.2538,0.2576,0.2609,0.2625,0.2652,0.2662,0.2665,0.2709,0.271,0.2736,0.2757,0.2813,0.2768,0.2775,0,0,0.2472,0.2487,0.2491,0.2528,0.2557,0.2596,0.2636,0.266,0.267,0.2691,0.2693,0.2738,0.2758,0.2815,0.2807,0.2813,0,0,0,0.2474,0.2482,0.2494,0.2529,0.2564,0.2621,0.2654,0.2683,0.2724,0.2685,0.2744,0.2756,0.2791,0.2759,0.2763,0.2713,0.2713,0.2713,0.2713,0.2434,0.2464,0.2474,0.252,0.2555,0.264,0.2688,0.2737,0.2731,0.2764,0.2783,0.2852,0.2817,0.282,0.2782,0.2782,0.2782,0.2782,0.2782,0.2401,0.2401,0.2462,0.248,0.2558,0.2606,0.2728,0.2767,0.2853,0.2824,0.2857,0.2795,0.2827,0.2785,0.2784,0.2784,0.2784,0.2783,0.2783,0.2353,0.2357,0.2381,0.2431,0.2506,0.2606,0.2715,0.2817,0.2884,0.2925,0.2906,0.2904,0.2885,0.2945,0.2945,0.2946,0.2946,0.2946,0.2946,0.2283,0.2311,0.2322,0.2388,0.2426,0.2541,0.272,0.2805,0.2917,0.2948,0.2947,0.2908,0.2902,0.2895,0.2952,0.2951,0.295,0.295,0.2949,0.2215,0.2239,0.225,0.2278,0.2368,0.241,0.2613,0.2778,0.2894,0.2939,0.2967,0.2965,0.296,0.2954,0.2948,0.3016,0.3016,0.3016,0.3016,0.2165,0.2181,0.2178,0.2198,0.2253,0.2346,0.239,0.2525,0.2737,0.2797,0.2806,0.2726,0.2729,0.2706,0.2706,0.2693,0.2694,0.2694,0.2693,0.2125,0.2137,0.2105,0.2129,0.2175,0.2231,0.22,0.2182,0.2386,0.2673,0.2681,0.3008,0.2912,0.2909,0.2889,0.2883,0.2869,0,0]},{"header":{"parameterUnit":"m.s-1","parameterCategory":2,"la1":30.2992,"la2":30.254,"lo1":-89.0895,"lo2":-89.0443,"dy":0.0025,"dx":0.0025,"nx":19,"ny":19,"refTime":"2026-04-07T21:00:00:Z","depth":"2","parameterNumber":3,"parameterNumberName":"V-component_of_CURRENTS"},"data":[0,0,0,0.0191,0.0189,0.0093,0.0092,-0.001,-0.0011,0,0,0,0,0,0,0,0,0,0,0,0.0226,0.0225,0.0191,0.0189,0.0093,0.0092,-0.001,-0.0011,0,0,0,0,0,0,0,0,0,0,0,0.0226,0.0225,0.0225,0.0189,0.0093,0.0092,-0.001,0.0056,0,0,0,0,0,0,0,0,0,0,0.0146,0.0178,0.0225,0.0225,0.0188,0.0093,0.0092,0.0059,0.0052,0.0042,0,0.0031,0,0.0011,-0.0016,-0.0017,0,0,0,0.0181,0.0183,0.0159,0.0224,0.0187,0.0093,0.0134,0.0055,0.0047,0.0033,0.0029,0.0025,0.0009,-0.0017,-0.0017,-0.0038,-0.0038,0,0,0.0186,0.0205,0.0164,0.0154,0.0167,0.0137,0.0131,0.005,0.0043,0.0029,0.0022,0.0007,-0.0018,-0.0018,-0.0038,-0.0038,0,0,0,0.0207,0.0208,0.0185,0.0159,0.0141,0.0134,0.0127,0.0047,0.0039,0.0021,0.0006,-0.0018,-0.0019,-0.0039,-0.0038,0.006,0,0,0,0.021,0.0221,0.0188,0.0197,0.0143,0.009,0.0127,0.0045,0.0035,0.0007,-0.0018,-0.002,-0.0039,-0.0039,0.0057,0.0118,0,0,0,0.0229,0.0223,0.0214,0.0198,0.016,0.009,0.0078,0.0042,0.0026,-0.0017,-0.002,-0.004,-0.0039,0.0054,0.0112,0.0149,0,0,0,0.0248,0.0244,0.0214,0.0209,0.0161,0.0138,0.0078,0.0047,0.0016,-0.0019,-0.0039,-0.0038,0.0053,0.0108,0.0145,0.0215,0.0238,0,0,0.0257,0.0245,0.0245,0.0217,0.0224,0.0151,0.0159,0.0088,0.0028,-0.0014,-0.0015,0.0058,0.0111,0.0148,0.027,0.0292,0,0,0,0.0258,0.0266,0.026,0.0256,0.0225,0.0222,0.0146,0.0118,0.0076,0.0014,0.005,0.008,0.01,0.0134,0.0151,-0.0034,-0.0034,-0.0034,-0.0034,0.0305,0.0299,0.032,0.0315,0.0301,0.0267,0.0256,0.0205,0.0132,0.0131,0.0154,0.0244,0.0281,0.0294,0.0135,0.0136,0.0136,0.0136,0.0137,0.0359,0.0383,0.0383,0.0399,0.0396,0.0397,0.0361,0.0323,0.0306,0.0235,0.0248,0.0229,0.0319,0.0144,0.0143,0.0142,0.0141,0.014,0.014,0.0408,0.0422,0.0429,0.0472,0.0512,0.0495,0.0557,0.0504,0.041,0.0428,0.043,0.0429,0.0309,0.0424,0.0425,0.0425,0.0426,0.0426,0.0426,0.0454,0.0468,0.0517,0.0556,0.0601,0.0668,0.0677,0.0676,0.063,0.0557,0.0557,0.034,0.0331,0.0325,0.0433,0.0432,0.0431,0.043,0.043,0.0517,0.0521,0.0602,0.0653,0.0775,0.0898,0.0891,0.0908,0.0863,0.0854,0.0616,0.0609,0.0583,0.0568,0.0567,0.0732,0.0732,0.0732,0.0732,0.0564,0.057,0.0688,0.0792,0.0922,0.1009,0.1144,0.1108,0.0961,0.084,0.0835,0.0787,0.0773,0.0752,0.0732,0.0732,0.094,0.094,0.094,0.0619,0.0646,0.0742,0.0835,0.0986,0.1135,0.1263,0.1226,0.1004,0.0945,0.0832,0.0753,0.0665,0.065,0.0597,0.0575,0.0565,0,0]}],[{"header":{"parameterUnit":"m.s-1","parameterCategory":2,"la1":30.2992,"la2":30.254,"lo1":-89.0895,"lo2":-89.0443,"dy":0.0025,"dx":0.0025,"nx":19,"ny":19,"refTime":"2026-04-07T21:00:00:Z","depth":"4","parameterNumber":2,"parameterNumberName":"U-component_of_CURRENTS"},"data":[0,0,0,0.1735,0.1739,0.1922,0.1922,0.2074,0.2075,0,0,0,0,0,0,0,0,0,0,0,0.1679,0.168,0.1735,0.1739,0.1921,0.1922,0.2074,0.2075,0,0,0,0,0,0,0,0,0,0,0,0.1678,0.168,0.1682,0.174,0.1921,0.1922,0.2074,0.1957,0,0,0,0,0,0,0,0,0,0,0.179,0.1758,0.1679,0.1682,0.1741,0.1921,0.1922,0.1953,0.1964,0.1967,0,0.2007,0,0.2039,0.2083,0.2084,0,0,0,0.1743,0.1748,0.1787,0.1682,0.1742,0.1921,0.184,0.196,0.1973,0.1983,0.2009,0.2015,0.2042,0.2084,0.2085,0.2209,0.2209,0,0,0.1733,0.1719,0.1778,0.1796,0.1803,0.1834,0.1846,0.1969,0.1992,0.201,0.2019,0.2044,0.2085,0.2086,0.2208,0.2209,0,0,0,0.1701,0.1712,0.1751,0.1789,0.1826,0.1839,0.1853,0.1987,0.1998,0.2021,0.2046,0.2086,0.2087,0.2208,0.2208,0.2246,0,0,0,0.1695,0.1693,0.1746,0.1741,0.1825,0.1922,0.1868,0.199,0.2005,0.2045,0.2086,0.2088,0.2207,0.2208,0.2244,0.2263,0,0,0,0.1668,0.1691,0.1714,0.1739,0.1815,0.1921,0.1941,0.1994,0.2019,0.2084,0.2089,0.2207,0.2208,0.2242,0.226,0.2305,0,0,0,0.1644,0.1687,0.1714,0.1775,0.1814,0.1912,0.1941,0.2039,0.2099,0.2086,0.2207,0.2208,0.2242,0.2258,0.2303,0.2023,0,0,0,0.1675,0.1691,0.1724,0.1752,0.1834,0.1886,0.1984,0.2082,0.2111,0.216,0.2164,0.2245,0.2259,0.2305,0.209,0,0,0,0,0.1717,0.1741,0.1772,0.1834,0.1903,0.1983,0.2071,0.2114,0.2206,0.2152,0.2257,0.2265,0.2292,0.2122,0.2214,0.2214,0.2213,0.2213,0.2213,0.1723,0.1762,0.1815,0.1876,0.1946,0.2063,0.2136,0.2209,0.223,0.2282,0.2305,0.2377,0.2198,0.2313,0.2313,0.2313,0.2313,0.2314,0.2314,0.1733,0.1748,0.1827,0.1893,0.1984,0.2078,0.2208,0.2261,0.2365,0.2354,0.2379,0.2184,0.2318,0.2317,0.2316,0.2316,0.2315,0.2315,0.2315,0.1691,0.1703,0.1767,0.1865,0.198,0.2103,0.2208,0.2325,0.2403,0.2447,0.2279,0.2413,0.24,0.247,0.2471,0.2471,0.2471,0.2472,0.2472,0.1607,0.1669,0.1722,0.1839,0.1911,0.2042,0.2229,0.2292,0.2403,0.23,0.2472,0.243,0.2425,0.241,0.2476,0.2475,0.2475,0.2474,0.2474,0.1533,0.1584,0.1641,0.1709,0.1848,0.1912,0.2122,0.2173,0.2222,0.2196,0.2218,0.2229,0.2194,0.2195,0.2171,0.2169,0.2165,0.2162,0,0.1475,0.1505,0.1566,0.1625,0.168,0.1823,0.1813,0.1917,0.2017,0.1948,0.2235,0.2259,0.2265,0.2223,0.2219,0.2188,0,0,0,0.1429,0.1458,0.1466,0.154,0.1581,0.165,0.1797,0.1764,0.2001,0.1963,0.2078,0.21,0.233,0.249,0.2463,0.2457,0.2433,0,0]},{"header":{"parameterUnit":"m.s-1","parameterCategory":2,"la1":30.2992,"la2":30.254,"lo1":-89.0895,"lo2":-89.0443,"dy":0.0025,"dx":0.0025,"nx":19,"ny":19,"refTime":"2026-04-07T21:00:00:Z","depth":"4","parameterNumber":3,"parameterNumberName":"V-component_of_CURRENTS"},"data":[0,0,0,0.0256,0.0255,0.0194,0.0194,0.0096,0.0095,0,0,0,0,0,0,0,0,0,0,0,0.0275,0.0275,0.0256,0.0255,0.0194,0.0194,0.0096,0.0095,0,0,0,0,0,0,0,0,0,0,0,0.0275,0.0275,0.0275,0.0255,0.0194,0.0194,0.0096,0.0144,0,0,0,0,0,0,0,0,0,0,0.0205,0.0232,0.0275,0.0275,0.0255,0.0194,0.0194,0.0147,0.0141,0.0122,0,0.0118,0,0.011,0.0089,0.0089,0,0,0,0.0243,0.0236,0.022,0.0275,0.0254,0.0194,0.0218,0.0144,0.0138,0.0114,0.0117,0.0114,0.0108,0.0089,0.0088,0.0049,0.005,0,0,0.0246,0.026,0.0225,0.0217,0.0246,0.022,0.0217,0.014,0.0136,0.0117,0.0111,0.0107,0.0088,0.0087,0.0049,0.0049,0,0,0,0.0264,0.0263,0.0249,0.0221,0.0214,0.0219,0.0214,0.0139,0.0135,0.011,0.0106,0.0087,0.0086,0.0049,0.0049,0.0128,0,0,0,0.0266,0.0274,0.025,0.0257,0.0216,0.018,0.0216,0.014,0.0132,0.0106,0.0087,0.0086,0.0049,0.0049,0.0125,0.0175,0,0,0,0.0277,0.0275,0.0271,0.0258,0.0238,0.0181,0.0171,0.0138,0.0129,0.0089,0.0085,0.0048,0.0049,0.0123,0.017,0.0193,0,0,0,0.0289,0.028,0.0271,0.0262,0.0239,0.0215,0.0172,0.0143,0.0112,0.0087,0.0049,0.0049,0.0122,0.0167,0.0191,0.0209,0,0,0,0.0282,0.0279,0.0275,0.0266,0.0266,0.0222,0.0221,0.0162,0.0114,0.0069,0.0068,0.0126,0.0169,0.0193,0.024,0,0,0,0,0.0276,0.0283,0.0277,0.0279,0.0256,0.026,0.0202,0.0181,0.0144,0.0101,0.0115,0.014,0.0152,0.0154,0.0052,0.0052,0.0052,0.0052,0.0052,0.0296,0.0296,0.0308,0.031,0.0299,0.0282,0.0274,0.0236,0.0178,0.0177,0.0196,0.0258,0.0262,0.0176,0.0177,0.0177,0.0178,0.0178,0.0178,0.0323,0.034,0.0352,0.0364,0.0372,0.0374,0.0348,0.0322,0.0307,0.0254,0.0261,0.0227,0.0185,0.0184,0.0183,0.0182,0.0181,0.0181,0.0181,0.0352,0.0362,0.0376,0.0417,0.0458,0.0453,0.0502,0.0465,0.0388,0.0401,0.0377,0.0309,0.0312,0.0397,0.0397,0.0398,0.0398,0.0398,0.0398,0.0374,0.0392,0.0438,0.0481,0.0526,0.0585,0.0599,0.0589,0.0522,0.0478,0.0425,0.0332,0.0325,0.0323,0.0403,0.0403,0.0402,0.0401,0.0401,0.0406,0.0421,0.0491,0.0542,0.0652,0.0697,0.0717,0.0681,0.0667,0.0618,0.0504,0.0497,0.0469,0.0459,0.0461,0.0585,0.0585,0.0586,0,0.0433,0.0443,0.0546,0.0638,0.0734,0.0767,0.0784,0.0763,0.0661,0.0646,0.0641,0.0512,0.0506,0.0473,0.0465,0.0468,0,0,0,0.0466,0.0492,0.0571,0.0658,0.0765,0.0784,0.079,0.0764,0.0683,0.0672,0.06,0.0596,0.0517,0.0419,0.036,0.0351,0.0346,0,0]}]]